FW2417 Weather Reports


Display with metric or nautical units.
time (UTC)temp
F
wind
direction
speed
MPH
gust
MPH
rain 1hr
in
rain 24hr
in
rain mn
in
humidity
%
barometer
mb
20260906151553 105 231 0.0 3.0 0.00 0.00 0.00 17 1018.1
20260906150049 105 174 0.0 3.0 0.00 0.00 0.00 17 1018.3
20260906144550 106 240 0.0 2.0 0.00 0.00 0.00 17 1018.4
20260906143016 105 209 0.0 1.0 0.00 0.00 0.00 17 1018.6
20260906141548 104 214 0.0 3.0 0.00 0.00 0.00 18 1018.8
20260906140035 104 145 0.0 3.0 0.00 0.00 0.00 18 1018.9
20260906134502 103 233 0.0 4.0 0.00 0.00 0.00 19 1019.1
20260906133114 102 89 0.0 1.0 0.00 0.00 0.00 20 1019.1
20260906131618 102 229 0.0 3.0 0.00 0.00 0.00 20 1019.2
20260906130108 102 236 0.0 2.0 0.00 0.00 0.00 21 1019.4
20260906124607 100 82 0.0 2.0 0.00 0.00 0.00 21 1019.6
20260906123108 100 218 0.0 2.0 0.00 0.00 0.00 22 1019.6
20260906121616 100 252 0.0 3.0 0.00 0.00 0.00 22 1019.8
20260906120104 99 212 0.0 3.0 0.00 0.00 0.00 24 1020.0
20260906114559 99 253 0.0 1.0 0.00 0.00 0.00 23 1020.1
20260906113054 98 323 0.0 3.0 0.00 0.00 0.00 24 1020.1
20260906111554 97 138 0.0 2.0 0.00 0.00 0.00 25 1020.1
20260906110052 96 214 0.0 2.0 0.00 0.00 0.00 26 1020.2
20260906104554 95 218 0.0 2.0 0.00 0.00 0.00 26 1020.4
20260906103048 94 150 0.0 1.0 0.00 0.00 0.00 28 1020.6
20260906101547 93 153 0.0 1.0 0.00 0.00 0.00 28 1020.7
20260906100036 92 169 0.0 1.0 0.00 0.00 0.00 30 1020.6
20260906094540 90 127 0.0 1.0 0.00 0.00 0.00 33 1020.7
20260906093002 89 128 0.0 1.0 0.00 0.00 0.00 33 1020.6
20260906091621 88 130 0.0 1.0 0.00 0.00 0.00 34 1020.6
20260906090114 87 75 0.0 1.0 0.00 0.00 0.00 35 1020.6
20260906084504 86 70 0.0 1.0 0.00 0.00 0.00 36 1020.6
20260906083113 85 82 0.0 2.0 0.00 0.00 0.00 38 1020.4
20260906081612 84 69 0.0 2.0 0.00 0.00 0.00 42 1020.2
20260906080105 82 103 0.0 1.0 0.00 0.00 0.00 47 1020.3
20260906074605 80 101 0.0 2.0 0.00 0.00 0.00 48 1020.3
20260906073102 81 109 0.0 1.0 0.00 0.00 0.00 47 1020.4
20260906071608 81 111 0.0 3.0 0.00 0.00 0.00 42 1020.1
20260906070059 79 84 1.0 3.0 0.00 0.00 0.00 47 1020.0
20260906064558 77 142 0.0 1.0 0.00 0.00 0.00 59 1019.8
20260906063057 77 143 0.0 1.0 0.00 0.00 0.00 59 1019.7
20260906061600 77 142 0.0 0.0 0.00 0.00 0.00 60 1019.7
20260906060109 77 143 0.0 1.0 0.00 0.00 0.00 60 1019.6
20260906054606 76 143 0.0 0.0 0.00 0.00 0.00 62 1019.5
20260906053055 76 142 0.0 0.0 0.00 0.00 0.00 63 1019.5
20260906051550 77 142 0.0 0.0 0.00 0.00 0.00 61 1019.4
20260906050046 77 143 0.0 1.0 0.00 0.00 0.00 62 1019.4
20260906044550 77 141 0.0 3.0 0.00 0.00 0.00 62 1019.3
20260906043044 77 135 0.0 1.0 0.00 0.00 0.00 61 1019.3
20260906041543 79 150 0.0 2.0 0.00 0.00 0.00 59 1019.4
20260906040044 78 163 0.0 1.0 0.00 0.00 0.00 60 1019.5
20260906034557 78 146 0.0 2.0 0.00 0.00 0.00 60 1019.6
20260906033012 78 142 0.0 2.0 0.00 0.00 0.00 61 1019.5
20260906031537 80 221 0.0 0.0 0.00 0.00 0.00 58 1019.6
20260906030004 79 221 0.0 1.0 0.00 0.00 0.00 58 1019.7
20260906024506 80 221 0.0 0.0 0.00 0.00 0.00 58 1019.7
20260906023100 80 221 0.0 0.0 0.00 0.00 0.00 58 1019.7
20260906021603 80 221 0.0 1.0 0.00 0.00 0.00 57 1019.6
20260906020109 81 221 0.0 1.0 0.00 0.00 0.00 56 1019.7
20260906014609 81 221 0.0 1.0 0.00 0.00 0.00 57 1019.7
20260906013107 81 221 0.0 2.0 0.00 0.00 0.00 57 1019.8
20260906011601 81 219 0.0 2.0 0.00 0.00 0.00 57 1019.9
20260906010139 81 242 0.0 3.0 0.00 0.00 0.00 58 1019.9
20260906004614 81 241 1.0 3.0 0.00 0.00 0.00 58 1019.9
20260906003050 81 235 0.0 3.0 0.00 0.00 0.00 57 1019.7
20260906001600 81 238 1.0 5.0 0.00 0.00 0.00 57 1019.8
20260906000015 81 207 1.0 6.0 0.00 0.00 0.00 57 1019.8
20260905234540 81 221 2.0 7.0 0.00 0.00 0.00 57 1019.8
20260905233037 82 224 4.0 10.0 0.00 0.00 0.00 58 1019.8
20260905231535 83 219 2.0 8.0 0.00 0.00 0.00 59 1019.7
20260905230034 83 223 4.0 11.0 0.00 0.00 0.00 59 1019.6
20260905224616 84 236 2.0 6.0 0.00 0.00 0.00 58 1019.5
20260905223104 84 210 2.0 8.0 0.00 0.00 0.00 55 1019.6
20260905221603 84 217 2.0 6.0 0.00 0.00 0.00 55 1019.5
20260905220058 85 179 0.0 3.0 0.00 0.00 0.00 54 1019.3
20260905214549 85 129 0.0 1.0 0.00 0.00 0.00 51 1019.2
20260905213039 86 134 0.0 2.0 0.00 0.00 0.00 48 1019.2
20260905211546 87 155 1.0 3.0 0.00 0.00 0.00 45 1018.9
20260905210045 88 131 0.0 2.0 0.00 0.00 0.00 40 1018.9
20260905204510 89 111 0.0 2.0 0.00 0.00 0.00 32 1018.8
20260905203007 89 77 0.0 2.0 0.00 0.00 0.00 31 1018.6
20260905201505 90 77 0.0 2.0 0.00 0.00 0.00 31 1018.4
20260905200049 90 53 0.0 1.0 0.00 0.00 0.00 31 1018.3
20260905194509 90 78 0.0 2.0 0.00 0.00 0.00 31 1018.0
20260905193004 91 235 0.0 1.0 0.00 0.00 0.00 30 1017.9
20260905191505 92 235 0.0 1.0 0.00 0.00 0.00 30 1017.8
20260905190005 92 235 0.0 1.0 0.00 0.00 0.00 30 1017.8
20260905184543 93 233 0.0 0.0 0.00 0.00 0.00 31 1017.8
20260905183039 94 233 0.0 0.0 0.00 0.00 0.00 29 1017.8
20260905181510 94 233 0.0 1.0 0.00 0.00 0.00 30 1017.6
20260905180009 95 233 0.0 1.0 0.00 0.00 0.00 30 1017.5
20260905174542 95 233 0.0 1.0 0.00 0.00 0.00 29 1017.6
20260905173053 96 233 0.0 2.0 0.00 0.00 0.00 31 1017.9
20260905171553 96 235 0.0 5.0 0.00 0.00 0.00 28 1017.7
20260905170047 96 124 0.0 6.0 0.00 0.00 0.00 31 1017.4
20260905164546 96 111 1.0 4.0 0.00 0.00 0.00 30 1017.6
20260905163007 96 80 0.0 3.0 0.00 0.00 0.00 30 1017.4
20260905161508 96 86 0.0 2.0 0.00 0.00 0.00 31 1018.1
20260905160003 96 227 0.0 0.0 0.00 0.00 0.00 33 1018.3
20260905154614 96 227 0.0 2.0 0.00 0.00 0.00 33 1018.6
20260905153108 97 136 0.0 3.0 0.00 0.00 0.00 27 1018.5